Location: Newark
(2.6153°S, 29.9989°E)
Time: 18:53:52
(UTC+00:00)

N. Korean satellite - Pass Details

Date: 31 August 2019
Orbit: 455 x 508 km, 97.2° (Epoch: 15 September)

Event Time Altitude Azimuth Distance (km) Brightness Sun altitude
Rises 02:40:46 0° 49° (NE) 2,465 11.1 -20.1°
Reaches altitude 10° 02:44:46 10° 97° (E) 1,591 10.3 -19.1°
Maximum altitude 02:45:03 10° 102° (ESE) 1,586 10.2 -19.0°
Drops below altitude 10° 02:45:20 10° 107° (ESE) 1,591 10.1 -19.0°
Sets 02:49:20 0° 154° (SSE) 2,469 10.4 -18.0°
